Regional Weather Roundup
Issued by NWS Albany, NY

Home | Current Version | Previous Version | Text Only | Print | Product List | Glossary On
Versions: 1 2 3 4 5 6 7 8 9 10 11 12 13 14 15 16 17 18 19 20 21 22 23 24 25 26 27 28 29 30 31 32 33 34 35 36 37 38 39 40 41 42 43 44 45 46 47 48 49 50
000
ASUS41 KALY 242110
RWRALY

NEW YORK STATE HOURLY WEATHER ROUNDUP
NATIONAL WEATHER SERVICE ALBANY NY
500 PM EDT SUN MAY 24 2015

NOTE: "FAIR" INDICATES FEW OR NO CLOUDS BELOW 12,000 FEET WITH NO
SIGNIFICANT WEATHER AND/OR NO OBSTRUCTIONS TO VISIBILITY.

NYZ032-033-038>043-046>054-057>066-NYZ062>081-242200-
EAST


CITY           SKY/WX    TMP DP  RH WIND       PRES   REMARKS
ALBANY         PTSUNNY   81  40  23 W13       30.18S
GLENS FALLS    NOT AVBL
POUGHKEEPSIE   PTSUNNY   81  34  18 SW8G17    30.20F
NEWBURGH       PTSUNNY   79  43  27 W12G17    30.22F
MONTGOMERY     MOSUNNY   81  38  21 W13       30.20F
WHITE PLAINS   PTSUNNY   74  48  39 S13       30.24S
ISLIP          CLOUDY    68  46  45 SW18      30.26F
NEW YORK CITY  PTSUNNY   75  49  39 S18       30.24S
CENTRAL PARK   MOSUNNY   77  46  33 VRB5      30.26F
$$

NYZ005>009-017-018-044>046-055-056-242200-
CENTRAL


CITY           SKY/WX    TMP DP  RH WIND       PRES   REMARKS
FULTON         MOSUNNY   78  42  27 W9        30.18F
SYRACUSE       CLOUDY    78  37  22 SW9       30.18F
ROME           MOSUNNY   76  40  27 W14       30.20F
ELMIRA         PTSUNNY   80  42  25 VRB3      30.20F
BINGHAMTON     PTSUNNY   74  35  24 VRB7      30.24F
MONTICELLO     MOSUNNY   73  37  27 W10G17    30.26F
$$

NYZ026>034-041>043-242200-
NORTH


CITY           SKY/WX    TMP DP  RH WIND       PRES   REMARKS
WATERTOWN      PTSUNNY   75  38  26 SW12      30.17F
FORT DRUM      NOT AVBL
MASSENA        MOSUNNY   79  41  25 SW22G31   30.07F
SARANAC LAKE   LGT RAIN  73  31  21 W15G28    30.14S
PLATTSBURGH    PTSUNNY   81  35  19 MISG      30.06F
$$

NYZ001>004-010>016-019>021-242200-
WEST


CITY           SKY/WX    TMP DP  RH WIND       PRES   REMARKS
NIAGARA FALLS  PTSUNNY   76  46  34 SW14      30.18F
BUFFALO        PTSUNNY   72  45  37 SW15      30.20F
DUNKIRK        PTSUNNY   74  44  34 W9        30.22F
JAMESTOWN      MOSUNNY   73  46  38 W8        30.25F
WELLSVILLE     PTSUNNY   74  42  31 W10       30.26F
ROCHESTER      CLOUDY    80  45  28 SW18G25   30.19F
PENN YAN       PTSUNNY   78  40  25 W5        30.21F
$$

             KEY
       WCI = WIND CHILL INDEX
       VSB = VISIBILITY
       HX  = HEAT INDEX
$$



USA.gov is the U.S. government's official web portal to all federal, state and local government web resources and services.